Weather in Kacha

Russia / Republic of Crimea     44°46′22″N   33°32′37″E
temp.,
°C
wind,
m/s
gust,
m/s
humid.,
%
clouds,
%
prec.,
mm/h
press.,
hPa
HPBL,
m
22 may, sun
sun2200:00+15s71259100 0.0 1011201
03:00+15s6116316 0.0 1009201
06:00+15s69655 0.0 1008162
09:00+16ssw5672100 0.0 1006137
12:00+15nw2289100 1.2 1006112
15:00+17nw4578100 1.3 1006184
18:00+16nw5673100 0.0 1006131
21:00+15nw347897 0.0 100753
23 may, mon
mon2300:00+15wnw34837 0.0 100774
03:00+15nw578190 0.0 1007166
06:00+14nnw468359 0.0 1007271
09:00+14nw3578100 0.1 1008505
12:00+14nw6677100 0.0 1008564
15:00+14nw777523 0.0 1008584
18:00+14wnw777650 0.0 1009573
21:00+14wnw5579100 0.3 1009448
24 may, tue
tue2400:00+14nnw347781 0.8 1010318
03:00+13ne45815 0.9 1010239
06:00+12nne468251 0.0 1011263
09:00+14nne56735 0.0 1013555
12:00+15nw55655 0.0 1014423
15:00+16wnw78725 0.0 1015399
18:00+16nw78662 0.0 1015242
21:00+15nnw47734 0.0 1017166
25 may, wed
wed2500:00+13e33745 0.1 101895
03:00+14se22673 0.1 101954
06:00+13se226321 0.0 102064
09:00+16n22565 0.0 1021165
12:00+16nw43622 0.0 1021354
15:00+16w55652 0.0 1021248
18:00+17wsw44685 0.0 1022219
21:00+16s2266100 0.0 102213
26 may, thu
thu2600:00+15sse226292 0.0 102242
03:00+14se2263100 0.0 102259
06:00+14sse34635 0.0 1021107
09:00+16s56608 0.0 1021212
12:00+17ssw9105797 0.0 1020334
15:00+17ssw91157100 0.0 1020309
18:00+16ssw810655 0.0 1020309
21:00+15s5869100 0.0 1020202